User: anonymous   Login
Location: Obersdorf
(47.4079°N, 10.2781°E)
Time: 07:09:48
(UTC+01:00)
Language:

XW-2A - Orbit

View from above orbital plane
View from above orbital plane
View from above satellite
View from above satellite

Ground track
Ground track

The orbit data is extracted from the following two-line orbital elements,

1 40903U 15049E   21338.78964551  .00008307  00000-0  16490-3 0  9998
2 40903  97.2146  32.7114 0013389 109.6088  27.4942 15.47158926349115
Epoch (UTC): 04 December 2021 18:57:05
Eccentricity: 0.0013389
inclination: 97.2146°
perigee height: 416 km
apogee height: 434 km
right ascension of ascending node: 32.7114°
argument of perigee: 109.6088°
revolutions per day: 15.47158926
mean anomaly at epoch: 27.4942°
orbit number at epoch: 34911

The dashed part of the orbit path shows where the satellite is in the earth's shadow,  

DLR